Acuna, Argentina
Current Conditions -  °F | °C
As of 3:00 PM on Sunday 21 Dec 2014 (Local Time) from SARL Reporting Station
Scattered Clouds Scattered Clouds  
Wind Chill: 77°   Ceiling: Unl
Heat Index: 79°   Visibility: 6mi
Dew Point: 66°   Wind: 17mph
Humidity: 69%   Direction: 180°S
Pressure: 29.65"   Gusts: NA
Location:  29.92°S, 57.97°W
Report Text: SARL 211800Z 18015KT 9999 SCT025TCU SCT100 25/19 Q1004
Loading
Personal Weather Stations






























Interactive Weather Map New forecast layout! Learn more

10-Day Weather Forecast

Advertisements
Track Severe Weather on mobile